Weather History for Gary, IN

Change the Weather History Date:

Tuesday, November 5, 2013

  Actual Average Record
Temperature  
Mean Temperature 55 °F -  
Max Temperature 57 °F 53 °F 77 °F (1978)
Min Temperature 53 °F 40 °F 15 °F (1951)
Degree Days  
Heating Degree Days 10    
Growing Degree Days 5 (Base 50)    
Moisture  
Dew Point 45 °F    
Average Humidity 68    
Maximum Humidity 88    
Minimum Humidity 61    
Precipitation  
Precipitation 0.00 in - - ()
Sea Level Pressure  
Sea Level Pressure 30.17 in    
Wind  
Wind Speed 7 mph (South)    
Max Wind Speed 15 mph    
Max Gust Speed 23 mph    
Visibility 10 miles    
Events Rain    
Averages and records for this station are not official NWS values.
T = Trace of Precipitation, MM = Missing Value Source: NWS Daily Summary

Daily Weather History Graph

Daily Weather History Graph

Search for Another Location

Airport:

Trip Planner

Search our weather history database for the weather conditions in past years. The results will help you decide how hot, cold, wet, or windy it might be!

Date:

Astronomy

Nov. 05, 2013 Rise Set
Actual Time 6:26 AM CST 4:39 PM CST
Civil Twilight 5:57 AM CST 5:08 PM CST
Nautical Twilight 5:24 AM CST 5:41 PM CST
Astronomical Twilight 4:52 AM CST 6:13 PM CST
Moon 8:42 AM CST (11/5) 6:39 PM CST (11/5)
Length of Visible Light 11h 10m
Length of Day
10h 12m
Waxing Crescent, 7% of the Moon is Illuminated
Nov 5
Waxing Crescent
Nov 9
First Quarter
Nov 17
Full
Nov 25
Last Quarter
Dec 2
New

Hourly Weather History & Observations

Time (CST) Temp. Dew Point Humidity Pressure Visibility Wind Dir Wind Speed Gust Speed Precip Events Conditions
12:15 AM 54.7 °F 41.5 °F 61% 30.23 in 10.0 mi SSW 6.9 mph - N/A   Overcast
12:35 AM 54.7 °F 41.9 °F 62% 30.23 in 10.0 mi South 5.8 mph - N/A   Overcast
12:55 AM 54.5 °F 41.9 °F 62% 30.23 in 10.0 mi SSW 4.6 mph - N/A   Overcast
1:15 AM 54.3 °F 41.9 °F 63% 30.23 in 10.0 mi SSW 4.6 mph - N/A   Overcast
1:35 AM 54.1 °F 42.1 °F 64% 30.24 in 10.0 mi SSW 4.6 mph - N/A   Overcast
1:55 AM 54.0 °F 42.1 °F 64% 30.24 in 10.0 mi SSW 5.8 mph - N/A   Overcast
2:15 AM 53.8 °F 42.1 °F 65% 30.24 in 10.0 mi South 3.5 mph - N/A   Overcast
2:35 AM 53.6 °F 42.3 °F 65% 30.24 in 10.0 mi South 5.8 mph - N/A   Overcast
2:55 AM 53.6 °F 42.4 °F 66% 30.25 in 10.0 mi SSW 5.8 mph - N/A   Overcast
3:15 AM 53.2 °F 42.4 °F 67% 30.25 in 10.0 mi South 5.8 mph - N/A   Overcast
3:35 AM 53.1 °F 42.4 °F 67% 30.25 in 10.0 mi South 4.6 mph - N/A   Overcast
4:45 AM 53.6 °F 42.8 °F 67% 30.26 in 10.0 mi South 3.5 mph - N/A   Overcast
5:45 AM 53.6 °F 42.8 °F 67% 30.26 in 10.0 mi South 4.6 mph - N/A   Overcast
6:45 AM 53.6 °F 42.8 °F 67% 30.27 in 10.0 mi South 3.5 mph - N/A   Mostly Cloudy
7:45 AM 53.6 °F 44.6 °F 72% 30.29 in 10.0 mi South 4.6 mph - N/A   Overcast
8:45 AM 53.6 °F 44.6 °F 72% 30.30 in 15.0 mi South 6.9 mph - N/A   Overcast
9:45 AM 55.4 °F 46.4 °F 72% 30.28 in 10.0 mi South 3.5 mph - N/A   Mostly Cloudy
10:45 AM 57.2 °F 46.4 °F 67% 30.28 in 10.0 mi South 9.2 mph - N/A   Overcast
11:45 AM 53.6 °F 50.0 °F 88% 30.27 in 3.0 mi South 9.2 mph - N/A   Overcast
12:45 PM 53.6 °F 50.0 °F 88% 30.23 in 10.0 mi SE 6.9 mph - N/A   Overcast
1:45 PM 55.4 °F 48.2 °F 77% 30.21 in 10.0 mi South 6.9 mph - N/A   Overcast
2:45 PM 55.4 °F 48.2 °F 77% 30.20 in 10.0 mi SSE 5.8 mph - N/A   Overcast
3:45 PM 57.2 °F 46.4 °F 67% 30.17 in 10.0 mi SSE 6.9 mph - N/A   Overcast
4:45 PM 57.2 °F 46.4 °F 67% 30.15 in 10.0 mi SSE 9.2 mph - N/A   Overcast
5:45 PM 55.4 °F 44.6 °F 67% 30.15 in 10.0 mi SE 11.5 mph - N/A   Overcast
6:45 PM 55.4 °F 44.6 °F 67% 30.13 in 10.0 mi SSE 11.5 mph - N/A   Overcast
7:45 PM 55.4 °F 44.6 °F 67% 30.10 in 10.0 mi SE 11.5 mph - N/A   Overcast
8:15 PM 55.2 °F 43.7 °F 65% 30.09 in 10.0 mi SSE 8.1 mph 16.1 mph N/A   Mostly Cloudy
8:35 PM 55.4 °F 43.3 °F 64% 30.08 in 10.0 mi SSE 9.2 mph 18.4 mph N/A   Overcast
8:55 PM 56.3 °F 43.3 °F 62% 30.07 in 10.0 mi SSE 12.7 mph 17.3 mph N/A   Overcast
9:15 PM 56.5 °F 43.3 °F 61% 30.07 in 10.0 mi SSE 11.5 mph 21.9 mph N/A   Overcast
9:35 PM 56.3 °F 44.4 °F 64% 30.06 in 10.0 mi SSE 12.7 mph 18.4 mph N/A   Light Drizzle
9:45 PM 55.4 °F 44.6 °F 67% 30.06 in 10.0 mi SSE 11.5 mph 23.0 mph N/A   Overcast
9:55 PM 56.3 °F 44.6 °F 65% 30.05 in 10.0 mi SSE 15.0 mph 19.6 mph N/A   Light Drizzle
10:15 PM 55.8 °F 45.9 °F 69% 30.05 in 10.0 mi SSE 12.7 mph 20.7 mph N/A   Drizzle
10:35 PM 55.4 °F 47.1 °F 74% 30.04 in 7.0 mi SSE 9.2 mph 23.0 mph N/A   Overcast
10:55 PM 55.2 °F 47.3 °F 75% 30.02 in 10.0 mi SSE 12.7 mph - N/A   Overcast
11:15 PM 55.8 °F 47.1 °F 73% 30.01 in 10.0 mi SSE 10.4 mph 19.6 mph N/A Rain Rain
11:35 PM 56.5 °F 46.0 °F 68% 30.01 in 10.0 mi SSE 11.5 mph 21.9 mph N/A   Overcast
11:55 PM 57.9 °F 44.8 °F 62% 29.99 in 10.0 mi South 15.0 mph 23.0 mph N/A   Overcast